TimePST,TemperatureF,Dew PointF,Humidity,Sea Level PressureIn,VisibilityMPH,Wind Direction,Wind SpeedMPH,Gust SpeedMPH,PrecipitationIn,Events,Conditions,WindDirDegrees,DateUTC
12:29 AM,41.0,39.9,96,30.44,1.2,Calm,Calm,-,N/A,,Overcast,0,2013-12-14 08:29:00
12:41 AM,39.9,39.9,100,30.44,0.8,WSW,3.5,-,N/A,,Overcast,250,2013-12-14 08:41:00
12:53 AM,39.9,39.0,97,30.44,0.5,Calm,Calm,-,N/A,Fog,Fog,0,2013-12-14 08:53:00
1:53 AM,41.0,39.9,96,30.44,0.2,Calm,Calm,-,N/A,Fog,Fog,0,2013-12-14 09:53:00
2:26 AM,39.9,39.0,97,30.45,1.2,East,3.5,-,N/A,,Overcast,90,2013-12-14 10:26:00
2:35 AM,39.9,39.0,97,30.45,2.5,SE,3.5,-,N/A,,Overcast,140,2013-12-14 10:35:00
2:45 AM,39.9,39.0,97,30.46,1.5,Calm,Calm,-,N/A,,Overcast,0,2013-12-14 10:45:00
2:53 AM,39.9,39.0,97,30.45,1.0,Calm,Calm,-,N/A,,Mist,0,2013-12-14 10:53:00
3:00 AM,39.9,39.0,97,30.45,0.5,Calm,Calm,-,N/A,Fog,Fog,0,2013-12-14 11:00:00
3:53 AM,39.9,39.0,97,30.43,0.8,SSE,4.6,-,N/A,,Mist,160,2013-12-14 11:53:00
4:53 AM,39.0,37.9,96,30.43,0.5,Calm,Calm,-,N/A,Fog,Fog,0,2013-12-14 12:53:00
5:06 AM,39.0,37.9,96,30.43,1.2,SSE,3.5,-,N/A,,Overcast,150,2013-12-14 13:06:00
5:11 AM,39.0,37.0,93,30.43,3.0,SSE,4.6,-,N/A,,Overcast,150,2013-12-14 13:11:00
5:39 AM,37.9,37.0,97,30.40,1.8,SE,5.8,-,N/A,,Overcast,130,2013-12-14 13:39:00
5:49 AM,37.4,35.6,93,30.39,3.0,SE,5.8,-,N/A,,Overcast,140,2013-12-14 13:49:00
5:53 AM,37.9,37.0,97,30.40,9.0,Calm,Calm,-,N/A,,Overcast,0,2013-12-14 13:53:00
6:53 AM,39.0,37.0,93,30.41,10.0,Calm,Calm,-,N/A,,Overcast,0,2013-12-14 14:53:00
7:05 AM,39.0,37.0,93,30.42,1.5,West,3.5,-,N/A,,Overcast,260,2013-12-14 15:05:00
7:08 AM,39.0,37.0,93,30.42,0.8,Calm,Calm,-,N/A,,Overcast,0,2013-12-14 15:08:00
7:53 AM,39.0,37.9,96,30.41,0.8,ESE,4.6,-,N/A,,Mist,110,2013-12-14 15:53:00
7:56 AM,39.0,37.0,93,30.41,1.2,SE,3.5,-,N/A,,Overcast,130,2013-12-14 15:56:00
8:01 AM,39.0,37.0,93,30.42,4.0,SSE,3.5,-,N/A,,Overcast,150,2013-12-14 16:01:00
8:28 AM,39.0,37.9,96,30.43,1.8,SW,3.5,-,N/A,,Overcast,230,2013-12-14 16:28:00
8:44 AM,39.9,39.0,97,30.44,3.0,Calm,Calm,-,N/A,,Overcast,0,2013-12-14 16:44:00
8:53 AM,39.9,37.9,93,30.44,5.0,ESE,5.8,-,N/A,,Overcast,120,2013-12-14 16:53:00
9:18 AM,39.0,37.9,96,30.43,1.5,SE,6.9,-,N/A,,Overcast,130,2013-12-14 17:18:00
9:23 AM,39.0,37.9,96,30.43,0.8,SE,4.6,-,N/A,,Overcast,130,2013-12-14 17:23:00
9:34 AM,39.0,37.9,96,30.43,1.2,SSE,5.8,-,N/A,,Overcast,150,2013-12-14 17:34:00
9:40 AM,39.0,37.0,93,30.43,3.0,SE,6.9,-,N/A,,Overcast,140,2013-12-14 17:40:00
9:53 AM,39.0,37.0,93,30.43,10.0,South,3.5,-,N/A,,Mostly Cloudy,190,2013-12-14 17:53:00
10:13 AM,39.0,37.0,93,30.44,10.0,SE,3.5,-,N/A,,Mostly Cloudy,140,2013-12-14 18:13:00
10:21 AM,39.0,37.0,93,30.44,10.0,Calm,Calm,-,N/A,,Scattered Clouds,0,2013-12-14 18:21:00
10:31 AM,39.9,37.0,89,30.44,10.0,Calm,Calm,-,N/A,,Mostly Cloudy,0,2013-12-14 18:31:00
10:53 AM,41.0,37.9,89,30.45,10.0,WNW,3.5,-,N/A,,Mostly Cloudy,300,2013-12-14 18:53:00
11:53 AM,42.1,39.0,89,30.44,10.0,SSW,3.5,-,N/A,,Overcast,200,2013-12-14 19:53:00
12:53 PM,42.1,39.0,89,30.43,9.0,Calm,Calm,-,N/A,,Overcast,0,2013-12-14 20:53:00
1:53 PM,42.1,39.0,89,30.43,8.0,Calm,Calm,-,N/A,,Overcast,0,2013-12-14 21:53:00
2:53 PM,42.1,39.0,89,30.42,8.0,Calm,Calm,-,N/A,,Overcast,0,2013-12-14 22:53:00
3:53 PM,43.0,39.9,89,30.43,8.0,North,3.5,-,N/A,,Overcast,360,2013-12-14 23:53:00
4:53 PM,42.1,39.9,92,30.43,8.0,Calm,Calm,-,N/A,,Overcast,0,2013-12-15 00:53:00
5:25 PM,42.1,39.9,92,30.44,7.0,Calm,Calm,-,N/A,,Overcast,0,2013-12-15 01:25:00
5:53 PM,42.1,39.0,89,30.45,7.0,WSW,3.5,-,N/A,,Overcast,250,2013-12-15 01:53:00
6:37 PM,41.0,39.0,93,30.45,7.0,SSE,3.5,-,N/A,,Overcast,150,2013-12-15 02:37:00
6:53 PM,41.0,39.0,93,30.45,5.0,Calm,Calm,-,N/A,,Overcast,0,2013-12-15 02:53:00
7:17 PM,41.0,39.0,93,30.45,1.8,Calm,Calm,-,N/A,,Overcast,0,2013-12-15 03:17:00
7:34 PM,41.0,39.0,93,30.45,3.0,East,3.5,-,N/A,,Overcast,100,2013-12-15 03:34:00
7:41 PM,41.0,39.0,93,30.44,1.8,East,3.5,-,N/A,,Overcast,100,2013-12-15 03:41:00
7:53 PM,39.9,39.0,97,30.44,1.5,SE,4.6,-,N/A,,Overcast,140,2013-12-15 03:53:00
8:03 PM,39.9,39.0,97,30.44,3.0,Calm,Calm,-,N/A,,Overcast,0,2013-12-15 04:03:00
8:14 PM,39.9,37.9,93,30.44,2.5,SSE,4.6,-,N/A,,Overcast,150,2013-12-15 04:14:00
8:21 PM,39.9,37.9,93,30.44,5.0,SSE,4.6,-,N/A,,Overcast,150,2013-12-15 04:21:00
8:53 PM,39.0,37.9,96,30.45,5.0,SW,3.5,-,N/A,,Overcast,230,2013-12-15 04:53:00
9:53 PM,39.0,37.9,96,30.47,3.0,SW,4.6,-,N/A,,Overcast,230,2013-12-15 05:53:00
10:00 PM,39.0,37.9,96,30.47,2.5,SW,3.5,-,N/A,,Overcast,230,2013-12-15 06:00:00
10:08 PM,39.0,37.9,96,30.47,3.0,Calm,Calm,-,N/A,,Overcast,0,2013-12-15 06:08:00
10:53 PM,39.9,37.9,93,30.48,4.0,Calm,Calm,-,N/A,,Overcast,0,2013-12-15 06:53:00
11:48 PM,39.2,37.4,93,30.47,2.0,ESE,5.8,-,N/A,,Overcast,110,2013-12-15 07:48:00
11:53 PM,39.0,37.9,96,30.47,1.5,East,4.6,-,N/A,,Overcast,100,2013-12-15 07:53:00